Location: Ehingen
(48.2869°N, 9.7112°E)
Time: 16:55:40
(UTC+01:00)

ISS - Pass Details

Date: 27 March 2017
Orbit: 399 x 409 km, 51.6° (Epoch: 25 March)

Event Time Altitude Azimuth Distance (km) Brightness Sun altitude
Rises 21:48:13 0° 227° (SW) 2,304 0.2 -20.3°
Reaches altitude 10° 21:50:20 10° 221° (SW) 1,451 -0.9 -20.6°
Enters shadow 21:51:05 16° 215° (SW) 1,161 -1.5 -20.8°
